FENGYUN 1C DEB

Satellite information

Favourite Embed

Satellite Type and Status

DEBRISIN ORBIT

Key statistics

Satellite FENGYUN 1C DEB at a glance.

Uptime

9660

Days in orbit

Revolutions

≈ 13.3

Per day

Orbit

SSO

Sun Synchronous Orbit

Inclination

98.0

Latest

Satellite identification and parameters

Extended collection of information and parameters for FENGYUN 1C DEB.

Object identification

Identified? True

Debris? True

Object name: FENGYUN 1C DEB

International designator: 1999-025EKY

Object number (NORAD): 37683

Object ID (CCSDS): 37683

Country: PEOPLES REPUBLIC OF CHINA (PRC)

Current information (Y/N): Y

RCS size: SMALL

Orbital parameters

Period: 108.135 minutes

Inclination: 97.9953 deg

SMA: 7518.604 km

Apoapsis: 1581.203 km

Periapsis: 699.736 km

RAAN: 222.4901 deg

Eccentricy: 0.0586191

Argument of periapsis: 268.5458 deg

Mean anomaly: 280.9717 deg

Mean motion: 13.31670895 rev/day

Mean motion (dot): 0.00003111 rev/day2

B* drag term: 0.002496663 1/REarth

Two-line elements (TLE)

Creation date: Oct. 18, 2025, 2:17 a.m.

Reference frame: TEME

Reference center: EARTH

Epoch: Oct. 17, 2025, 1:46 p.m. UTC

TLE line 0: 0 FENGYUN 1C DEB

TLE line 1: 1 37683U 99025EKY 25290.57419062 .00003111 00000-0 24967-2 0 9990

TLE line 2: 2 37683 97.9953 222.4901 0586191 268.5458 280.9717 13.31670895284921

Live tracking on map

Real-time ground track for satellite FENGYUN 1C DEB.

In-orbit conjunctions

A list of the most updated potential collisions computed for object FENGYUN 1C DEB.

Target Orbit TCA Probability of collision Miss distance Type
NIMBUS 2 SSO 2024-11-09 20:46:45 0.0005422983 166.0 (m) PAYLOAD

Associated space launch

Chinese polar orbiting meteorological satellite

FENGYUN 1C DEB was lifted into orbit during the mission ‘Long March 4B | Feng Yun 1C’, on board a Long March 4B space rocket.

The launch took place on May 10, 1999, 1:33 a.m. from Launch Complex 7.

For more information about the launch, click the button.

Launch to space Long March 4B | Feng Yun 1C
Long March 4B | Feng Yun 1C

Agency: N/A

Status: Launch Successful

Launch date: May 10, 1999, 1:33 a.m. UTC

Rocket: Long March 4B

Launch pad: Launch Complex 7

Location: Taiyuan Satellite Launch Center, People's Republic of China

...

Latest news about this satellite

There are no fresh news available about this satellite. Check back as we update our databases every day.


Newsletter sign-up

Weekly statistics, charts and insights to help you stay on top of the space industry.